TimeCDT,TemperatureF,Dew PointF,Humidity,Sea Level PressureIn,VisibilityMPH,Wind Direction,Wind SpeedMPH,Gust SpeedMPH,PrecipitationIn,Events,Conditions,WindDirDegrees,DateUTC
12:09 AM,75.2,71.6,89,29.97,10.0,SE,11.5,-,N/A,,Overcast,140,2012-10-23 05:09:00
12:53 AM,73.9,71.1,91,29.91,10.0,SSE,12.7,-,N/A,,Overcast,160,2012-10-23 05:53:00
1:53 AM,73.0,71.1,93,29.89,10.0,SSE,12.7,-,N/A,,Overcast,150,2012-10-23 06:53:00
2:53 AM,73.0,71.1,93,29.89,10.0,SSE,11.5,-,N/A,,Overcast,160,2012-10-23 07:53:00
3:53 AM,73.0,71.1,93,29.89,10.0,SSE,9.2,-,N/A,,Overcast,160,2012-10-23 08:53:00
4:20 AM,71.6,69.8,94,29.94,10.0,SSE,8.1,-,N/A,,Overcast,160,2012-10-23 09:20:00
4:53 AM,72.0,70.0,93,29.89,10.0,SSE,8.1,-,N/A,,Overcast,160,2012-10-23 09:53:00
5:24 AM,71.6,69.8,94,29.94,10.0,SSE,6.9,-,N/A,,Overcast,150,2012-10-23 10:24:00
5:53 AM,72.0,70.0,93,29.90,10.0,SSE,8.1,-,N/A,,Overcast,160,2012-10-23 10:53:00
6:33 AM,73.4,69.8,88,29.95,10.0,SSE,10.4,-,N/A,,Overcast,160,2012-10-23 11:33:00
6:53 AM,72.0,70.0,93,29.91,10.0,SSE,8.1,-,N/A,,Overcast,160,2012-10-23 11:53:00
7:53 AM,73.0,71.1,93,29.91,10.0,SSE,9.2,-,N/A,,Overcast,160,2012-10-23 12:53:00
8:53 AM,73.0,71.1,93,29.94,10.0,SSE,8.1,-,N/A,,Overcast,150,2012-10-23 13:53:00
9:13 AM,73.4,71.6,94,29.99,10.0,South,10.4,-,N/A,,Overcast,170,2012-10-23 14:13:00
9:53 AM,75.0,71.1,87,29.94,10.0,SSE,10.4,-,N/A,,Overcast,160,2012-10-23 14:53:00
10:40 AM,75.2,71.6,89,29.99,10.0,SE,12.7,-,N/A,,Overcast,140,2012-10-23 15:40:00
10:53 AM,75.9,71.1,85,29.94,10.0,South,11.5,19.6,N/A,,Overcast,180,2012-10-23 15:53:00
11:42 AM,77.0,71.6,83,29.98,10.0,South,10.4,-,N/A,,Overcast,170,2012-10-23 16:42:00
11:53 AM,77.0,71.1,82,29.94,10.0,SSE,9.2,-,N/A,,Overcast,150,2012-10-23 16:53:00
12:53 PM,79.0,71.1,77,29.92,10.0,SSE,8.1,-,N/A,,Overcast,160,2012-10-23 17:53:00
1:53 PM,81.0,70.0,69,29.90,10.0,South,9.2,-,N/A,,Overcast,170,2012-10-23 18:53:00
2:53 PM,82.9,69.1,63,29.88,10.0,SSE,12.7,19.6,N/A,,Mostly Cloudy,160,2012-10-23 19:53:00
3:53 PM,82.9,68.0,60,29.87,10.0,SSW,6.9,-,N/A,,Mostly Cloudy,210,2012-10-23 20:53:00
4:53 PM,84.0,68.0,58,29.86,10.0,SSE,6.9,-,N/A,,Scattered Clouds,160,2012-10-23 21:53:00
5:53 PM,82.4,69.8,66,29.90,10.0,ESE,9.2,-,N/A,,Scattered Clouds,120,2012-10-23 22:53:00
6:53 PM,81.0,66.9,62,29.86,10.0,SE,9.2,-,N/A,,Partly Cloudy,140,2012-10-23 23:53:00
7:53 PM,79.0,66.9,66,29.88,10.0,SE,11.5,-,N/A,,Scattered Clouds,130,2012-10-24 00:53:00
8:53 PM,78.1,68.0,71,29.90,10.0,SE,9.2,-,N/A,,Scattered Clouds,130,2012-10-24 01:53:00
9:53 PM,73.9,68.0,82,29.92,10.0,SE,8.1,-,N/A,,Clear,140,2012-10-24 02:53:00
10:53 PM,73.9,68.0,82,29.93,10.0,SSE,9.2,-,N/A,,Clear,150,2012-10-24 03:53:00
11:53 PM,73.0,69.1,87,29.93,10.0,SSE,11.5,-,N/A,,Clear,160,2012-10-24 04:53:00